Find OneWeb SL0448

NORAD ID: 51641 Int'l Des: 2022-012 Owner: ONEWEBN Country: UK Constellation: oneweb operational
LEOCIRCULARPOLARONEWEB_TYPE

实时位置

正在加载3D地球...

关于 OneWeb SL0448

正在加载描述...

即将过境

Passes for default location (London). Set your location on the main map for personalized predictions.

高度历史

Loading altitude history...

两行轨道根数

1 51641U 22012V 26124.80459115 -.00000637 00000-0 -18607-2 0 9994
2 51641 87.8852 44.9142 0001949 78.6841 281.4505 13.10371920203612
Epoch: May 4, 2026 • Age: 7 hours

当前状态

高度 1223.5 km
速度 7.24 km/s
星下点 7.37°N, 141.97°E
发射日期 Feb 10, 2022
运行时间 4.2 years
类型 internet

技术详情

分类 Payload
质量 148.00 kg
干质量 140.00 kg
总质量 148.00 kg
长度 1.30 m
直径 1.00 m
跨度 5.00 m
形状 Trapezoid+2 pan
制造商 ONEWUS
平台类型 ARROW
阶段状态 In Orbit
所有者/国家 ONEWEBN/UK

Most Searched